www.pogodaiklimat.ru

Погода и климат >> Архив погоды >> Франция >> Монтобан


ПОГОДА в Монтобане

  • Прогноз погоды в Монтобане
  • Монитор погоды в Монтобане

АРХИВ ПОГОДЫ в Монтобане

Время (UTC), дата Ветер
(напр.,м/с)
 
Видим.   Явления Облачность Т
(С)
Тd
(С)
f
(%)
Тe
(С)
Тes
(С)
Комфортность P
(гПа)
Po
(гПа)
Тmin
(С)
Tmax
(С)
R
(мм)
R24
(мм)
S
(см)
10 10.08 С 2 20 км н/о +23.4 +16.9 67 +29 +29 душно 1020.6 1008.2
11 10.08 С 2 20 км н/о +25.0 +15.0 54 +28 +28 жарко 1020.3 1008.0
12 10.08 ЮВ 1
{6}
19 км н/о +26.1 +15.5 52 +29 +29 жарко 1019.7 1007.4 0
13 10.08 С 1 20 км н/о +25.9 +15.3 52 +29 +29 душно 1019.5 1007.2
14 10.08 С 1 20 км н/о +27.6 +14.9 46 +30 +30 жарко 1019.2 1007.0
15 10.08 С 2
{7}
20 км н/о +27.5 +14.8 46 +30 +30 жарко 1018.9 1006.7 0
16 10.08 С 1 20 км н/о +27.6 +14.6 45 +30 +30 жарко 1018.7 1006.5
17 10.08 СЗ 2 20 км н/о +27.4 +14.8 46 +30 +30 жарко 1018.7 1006.5
18 10.08 СЗ 1
{7}
20 км н/о +27.2 +14.2 45 +29 +29 жарко 1018.8 1006.6 +19.7 +28.4 0
19 10.08 С 1 20 км н/о +25.9 +14.7 50 +28 +28 жарко 1018.8 1006.5
20 10.08 С 1 20 км н/о +24.5 +14.9 55 +27 +27 жарко 1019.1 1006.8
21 10.08 СЗ 1
{4}
20 км н/о +23.3 +15.4 61 +28 +28 душно 1019.4 1007.0 0
22 10.08 С 1 20 км н/о +22.2 +15.3 65 +26 +26 душно 1019.5 1007.1
23 10.08 С 1 20 км н/о +22.1 +15.4 66 +26 +26 душно 1019.1 1006.7
00 11.08 ЮВ 1
{4}
20 км н/о +20.9 +16.3 75 +26 +26 душно 1018.7 1006.2 0
01 11.08 В 1 20 км н/о +20.7 +15.7 73 +25 +25 комфорт 1017.9 1005.4
02 11.08 СВ 1 20 км н/о +20.6 +15.4 72 +25 +25 комфорт 1017.3 1004.8
03 11.08 С 1
{3}
20 км н/о +20.0 +15.6 76 +24 +24 комфорт 1016.4 1003.9 0
04 11.08 штиль 0 20 км н/о +19.1 +16.0 82 +20 +20 1015.4 1002.9
05 11.08 Ю 1 20 км н/о +19.0 +15.9 82 +22 +22 комфорт 1014.8 1002.3
06 11.08 СЗ 3
{9}
20 км н/о +19.8 +15.2 75 +22 +22 комфорт 1014.7 1002.2 +18.8 +27.3 0
07 11.08 СЗ 2 20 км н/о +20.6 +15.6 73 +24 +24 комфорт 1014.5 1002.1 0.0
08 11.08 С 2 20 км н/о +20.3 +15.5 74 +24 +24 комфорт 1014.9 1002.4
09 11.08 СЗ 3
{11}
20 км н/о +18.9 +14.8 77 +20 +20 1016.4 1003.9 0.0 0
10 11.08 С 2 18 км слаб. дождь н/о +17.0 +15.9 93 +17 +17 1017.8 1005.2 6
11 11.08 СВ 2 20 км н/о +18.3 +15.4 83 +19 +19 1017.7 1005.1 0.4
12 11.08 СВ 1
{7}
20 км н/о +20.5 +15.5 73 +24 +24 комфорт 1017.6 1005.1 7 0
13 11.08 С 2 20 км н/о +21.7 +15.1 66 +25 +25 комфорт 1017.6 1005.2
14 11.08 С 1 20 км н/о +22.5 +15.1 63 +26 +26 жарко 1017.0 1004.6
15 11.08 СЗ 2
{7}
20 км н/о +23.0 +15.3 62 +27 +27 душно 1017.1 1004.7 0
16 11.08 СЗ 2 20 км н/о +23.4 +14.9 59 +27 +27 душно 1017.4 1005.0
17 11.08 СЗ 3 20 км н/о +23.0 +15.3 62 +27 +27 душно 1017.2 1004.8
18 11.08 СЗ 2
{8}
20 км н/о +22.7 +14.8 61 +26 +26 жарко 1017.7 1005.3 +16.8 +24.0 0
19 11.08 СЗ 2 20 км н/о +21.3 +14.5 65 +24 +24 комфорт 1018.2 1005.7
20 11.08 СЗ 2 20 км н/о +20.0 +14.1 69 +23 +23 комфорт 1018.8 1006.3
21 11.08 СЗ 1
{5}
20 км н/о +19.2 +14.5 74 +22 +22 комфорт 1019.4 1006.8 0
22 11.08 СЗ 1 20 км н/о +18.6 +14.5 77 +21 +21 комфорт 1019.5 1006.9
23 11.08 СЗ 1 20 км н/о +18.2 +14.5 79 +20 +20 1019.6 1007.0
00 12.08 З 1
{2}
20 км н/о +17.9 +14.8 82 +20 +20 1019.6 1007.0 0
01 12.08 СЗ 1 20 км н/о +17.8 +15.4 86 +19 +19 1018.7 1006.1 0.2
02 12.08 СЗ 1 20 км н/о +17.7 +14.6 82 +19 +19 1019.1 1006.5
03 12.08 СЗ 1
{3}
20 км слаб. дождь н/о +17.4 +15.0 86 +18 +18 1018.8 1006.2 0.2 0
04 12.08 штиль 0 20 км слаб. дождь н/о +17.0 +15.3 90 +17 +17 1019.1 1006.4 0.4
05 12.08 СЗ 1 20 км н/о +16.7 +15.2 91 +18 +18 1018.9 1006.2 0.2
06 12.08 СЗ 1
{3}
20 км н/о +16.7 +15.1 90 +18 +18 1019.4 1006.7 +16.6 +22.7 0.8 0
07 12.08 СЗ 1 20 км н/о +17.9 +15.9 88 +19 +19 1019.5 1006.9 0.0
08 12.08 СЗ 2 20 км н/о +18.4 +15.8 85 +20 +20 1020.0 1007.4
09 12.08 З 2
{5}
20 км н/о +19.6 +15.7 78 +22 +22 комфорт 1020.6 1008.0 0.0 0
10 12.08 З 2 20 км н/о +19.8 +13.9 69 +22 +22 комфорт 1021.0 1008.4
11 12.08 СЗ 2 20 км н/о +20.5 +14.8 70 +24 +24 комфорт 1020.8 1008.3 0.2
12 12.08 СЗ 2
{7}
20 км н/о +21.3 +14.5 65 +24 +24 комфорт 1020.8 1008.3 0.2 0
13 12.08 З 2 20 км н/о +23.2 +12.2 50 +26 +26 жарко 1020.3 1007.9
14 12.08 С 1 20 км слаб. дождь н/о +17.3 +13.8 80 +18 +18 1021.5 1008.8 0.8
15 12.08 СЗ 2
{6}
20 км н/о +20.7 +15.7 73 +25 +25 комфорт 1020.8 1008.3 0.8 0
16 12.08 З 3 20 км н/о +21.4 +14.5 65 +24 +24 комфорт 1020.6 1008.1
17 12.08 СЗ 2 20 км н/о +21.6 +13.2 59 +24 +24 комфорт 1020.8 1008.3
18 12.08 З 2
{7}
20 км н/о +21.0 +13.4 62 +25 +25 комфорт 1021.0 1008.5 +16.7 +23.3 0
19 12.08 З 1 20 км н/о +20.4 +13.6 65 +24 +24 комфорт 1021.5 1009.0
20 12.08 З 1 20 км н/о +19.1 +13.9 72 +21 +21 комфорт 1022.4 1009.8
21 12.08 СЗ 1
{4}
20 км н/о +18.4 +13.5 73 +20 +20 1022.9 1010.3 0
22 12.08 З 1 20 км н/о +17.2 +12.9 76 +18 +18 1023.3 1010.6
23 12.08 СЗ 1 20 км н/о +16.7 +12.4 76 +18 +18 1023.5 1010.8
00 13.08 З 1
{3}
20 км н/о +15.8 +12.4 80 +16 +16 1023.7 1010.9 0
01 13.08 З 1 20 км н/о +15.4 +12.3 82 +16 +16 1023.6 1010.8
02 13.08 СЗ 1 20 км н/о +15.1 +12.2 83 +16 +16 1023.2 1010.4
03 13.08 СЗ 1
{4}
20 км н/о +14.8 +11.9 83 +16 +16 1022.7 1009.9 0
04 13.08 СЗ 1 20 км н/о +14.7 +11.8 83 +16 +16 1022.7 1009.9
05 13.08 СЗ 1 20 км н/о +14.5 +11.8 84 +16 +16 1023.0 1010.2
06 13.08 З 1
{4}
20 км н/о +15.0 +12.1 83 +15 +15 1023.7 1010.9 +14.4 +21.3 0
07 13.08 СЗ 1 20 км н/о +15.7 +11.7 77 +16 +16 1023.7 1010.9
08 13.08 СЗ 1 20 км н/о +17.4 +12.1 71 +18 +18 1023.6 1010.9
09 13.08 СЗ 1
{4}
20 км н/о +19.1 +11.1 60 +21 +21 комфорт 1023.4 1010.8 0
10 13.08 СЗ 2 20 км н/о +20.2 +10.0 52 +22 +22 комфорт 1023.2 1010.6
11 13.08 СЗ 2 20 км н/о +21.1 +9.0 46 +22 +22 комфорт 1022.6 1010.1
12 13.08 СЗ 2
{9}
20 км н/о +21.7 +9.6 46 +23 +23 комфорт 1022.3 1009.8 0
13 13.08 СЗ 2 20 км н/о +22.6 +9.0 42 +24 +24 комфорт 1021.8 1009.3
14 13.08 СЗ 2 20 км н/о +22.9 +7.8 38 +24 +24 комфорт 1021.5 1009.0
15 13.08 СЗ 3
{8}
20 км н/о +23.0 +7.5 37 +24 +24 комфорт 1021.2 1008.7 0
16 13.08 СЗ 5
{10}
20 км н/о +23.2 +8.1 38 +24 +24 комфорт 1021.0 1008.6
17 13.08 СЗ 3 20 км н/о +22.7 +7.6 38 +24 +24 комфорт 1020.9 1008.4
18 13.08 СЗ 2
{7}
20 км н/о +22.4 +8.1 40 +24 +24 комфорт 1021.1 1008.6 +15.1 +23.6 0
19 13.08 СЗ 1 20 км н/о +21.0 +8.3 44 +23 +23 комфорт 1021.4 1008.9
20 13.08 СЗ 1 20 км н/о +19.0 +9.5 54 +21 +21 комфорт 1021.8 1009.2
21 13.08 СЗ 1
{3}
20 км н/о +18.1 +9.7 58 +20 +20 1022.4 1009.7 0
22 13.08 З 1 20 км н/о +17.0 +9.7 62 +18 +18 1022.4 1009.7
23 13.08 З 1 20 км н/о +16.3 +10.2 67 +18 +18 1022.0 1009.3
00 14.08 З 1
{3}
20 км н/о +15.4 +10.6 73 +17 +17 1022.3 1009.5 0
01 14.08 штиль 0 20 км н/о +13.9 +10.5 80 +14 +14 1021.5 1008.7
02 14.08 штиль 0 20 км н/о +13.6 +10.6 82 +13 +13 1021.5 1008.6
03 14.08 ЮВ 1
{1}
20 км н/о +12.9 +10.6 86 +14 +14 1021.3 1008.4 0
04 14.08 штиль 0 20 км н/о +12.9 +10.4 85 +12 +12 1020.7 1007.8
05 14.08 ЮВ 1 20 км н/о +11.6 +9.8 89 +12 +12 1020.9 1008.0
06 14.08 штиль 0
{1}
20 км н/о +13.2 +11.4 89 +13 +13 1021.2 1008.3 +11.5 +22.4 0
07 14.08 штиль 0 19 км н/о +16.6 +11.7 73 +17 +17 1021.3 1008.6
08 14.08 штиль 0 20 км н/о +19.4 +11.4 60 +20 +20 1021.2 1008.6
09 14.08 З 1
{2}
20 км н/о +21.8 +10.9 50 +24 +24 комфорт 1021.3 1008.8 0
10 14.08 СЗ 1 20 км н/о +23.0 +9.7 43 +25 +25 комфорт 1020.6 1008.2
11 14.08 С 1 20 км н/о +23.5 +8.7 39 +24 +24 комфорт 1020.6 1008.2
12 14.08 С 1
{6}
20 км н/о +24.7 +8.6 36 +25 +25 комфорт 1019.8 1007.4 0
13 14.08 СЗ 2 20 км н/о +25.3 +10.0 38 +26 +26 жарко 1019.3 1007.0
14 14.08 СЗ 2 20 км н/о +26.5 +9.8 35 +27 +27 жарко 1018.9 1006.6
15 14.08 СЗ 2
{7}
20 км н/о +26.9 +9.3 33 +27 +27 жарко 1018.4 1006.1 0
16 14.08 СЗ 2 20 км н/о +27.1 +9.9 34 +28 +28 жарко 1018.1 1005.9
17 14.08 СЗ 3 20 км н/о +27.1 +10.3 35 +28 +28 жарко 1018.0 1005.8
18 14.08 СЗ 2
{7}
20 км н/о +26.2 +10.4 37 +27 +27 жарко 1018.0 1005.7 +13.2 +27.3 0
19 14.08 З 1 20 км н/о +25.1 +10.9 41 +26 +26 жарко 1018.4 1006.1
20 14.08 З 1 20 км н/о +23.9 +11.6 46 +25 +25 комфорт 1018.9 1006.5
21 14.08 З 2
{5}
20 км н/о +23.6 +12.3 49 +25 +25 комфорт 1019.3 1006.9 0
22 14.08 З 2 20 км н/о +22.7 +10.5 46 +25 +25 комфорт 1019.5 1007.1
23 14.08 З 2 20 км н/о +21.8 +9.3 45 +23 +23 комфорт 1019.5 1007.0
00 15.08 З 2
{5}
20 км н/о +21.0 +9.9 49 +24 +24 комфорт 1019.9 1007.4 0
01 15.08 З 2 20 км н/о +20.6 +11.0 54 +23 +23 комфорт 1019.5 1007.0
02 15.08 СЗ 2 20 км н/о +19.7 +14.5 72 +22 +22 комфорт 1019.7 1007.2
03 15.08 З 1
{5}
20 км н/о +18.4 +15.8 85 +21 +21 комфорт 1019.6 1007.0 0.0 0
04 15.08 З 1 20 км н/о +18.7 +16.3 86 +21 +21 комфорт 1019.7 1007.1
05 15.08 ЮЗ 2
{3}
20 км н/о +18.7 +17.2 91 +21 +21 комфорт 1020.0 1007.4 0.2
06 15.08 З 1
{4}
20 км н/о +19.2 +17.3 89 +22 +22 комфорт 1020.3 1007.7 +18.4 +26.1 0.2 0
07 15.08 СЗ 2 20 км н/о +20.1 +17.5 85 +24 +24 комфорт 1020.8 1008.3
08 15.08 СЗ 3 20 км н/о +21.5 +16.0 71 +25 +25 комфорт 1021.0 1008.5
09 15.08 СЗ 3
{9}
20 км н/о +22.1 +15.0 64 +26 +26 душно 1021.2 1008.7 0
10 15.08 СЗ 3 20 км н/о +22.3 +12.5 54 +25 +25 комфорт 1021.4 1008.9
11 15.08 С 3 20 км н/о +23.3 +13.5 54 +27 +27 душно 1021.4 1009.0
12 15.08 СЗ 3
{9}
20 км н/о +23.1 +13.0 53 +26 +26 жарко 1021.5 1009.1 0
13 15.08 З 3 20 км н/о +23.9 +13.4 52 +26 +26 жарко 1021.4 1009.0
14 15.08 СЗ 3 20 км н/о +24.0 +12.6 49 +26 +26 жарко 1021.2 1008.8
15 15.08 СЗ 2
{9}
20 км н/о +24.3 +13.8 52 +27 +27 жарко 1021.1 1008.7 0
16 15.08 СЗ 3 20 км н/о +24.3 +12.3 47 +26 +26 жарко 1021.1 1008.7
17 15.08 СЗ 3 20 км н/о +24.4 +12.7 48 +26 +26 жарко 1021.2 1008.8
18 15.08 СЗ 2
{7}
20 км н/о +23.6 +12.3 49 +25 +25 комфорт 1021.2 1008.8 +19.3 +25.5 0
19 15.08 СЗ 1 20 км н/о +22.4 +13.2 56 +25 +25 комфорт 1021.5 1009.0
20 15.08 СЗ 1 20 км н/о +21.6 +13.0 58 +24 +24 комфорт 1022.1 1009.6
21 15.08 С 1
{3}
20 км н/о +20.7 +13.2 62 +25 +25 комфорт 1022.3 1009.8 0
22 15.08 С 1 20 км н/о +20.0 +13.2 65 +23 +23 комфорт 1022.4 1009.8
23 15.08 штиль 0 20 км н/о +17.9 +13.2 74 +18 +18 1022.2 1009.5
00 16.08 штиль 0
{1}
20 км н/о +16.3 +13.2 82 +16 +16 1022.1 1009.4 0
01 16.08 ЮВ 1 20 км н/о +15.1 +12.8 86 +16 +16 1021.8 1009.0
02 16.08 ЮВ 1 20 км н/о +14.2 +12.2 88 +15 +15 1021.3 1008.5
03 16.08 В 1
{1}
20 км н/о +13.6 +12.0 90 +15 +15 1020.8 1008.0 0
04 16.08 штиль 0 20 км н/о +13.3 +11.5 89 +13 +13 1020.8 1007.9
05 16.08 В 1 20 км н/о +12.8 +11.4 91 +14 +14 1020.6 1007.7
06 16.08 ЮВ 1
{2}
20 км н/о +14.0 +12.6 91 +15 +15 1020.4 1007.6 +12.7 +23.6 0
07 16.08 В 1 20 км н/о +17.0 +13.5 80 +19 +19 1020.7 1008.0
08 16.08 В 1 20 км н/о +19.8 +14.4 71 +23 +23 комфорт 1020.2 1007.6
09 16.08 СЗ 1
{2}
20 км н/о +22.6 +14.4 60 +26 +26 жарко 1019.7 1007.3 0
10 16.08 СВ 1 20 км н/о +23.7 +13.0 51 +26 +26 жарко 1018.9 1006.5
11 16.08 С 1 20 км н/о +24.6 +12.5 47 +26 +26 жарко 1018.3 1006.0
12 16.08 В 1
{5}
19 км н/о +25.4 +11.9 43 +27 +27 жарко 1017.8 1005.5 0
13 16.08 С 1 20 км н/о +27.2 +10.8 36 +28 +28 жарко 1017.0 1004.8
14 16.08 В 1 20 км н/о +27.8 +11.8 37 +29 +29 жарко 1016.3 1004.1
15 16.08 ЮВ 1
{4}
20 км н/о +28.9 +12.7 37 +30 +30 жарко 1015.8 1003.7 0
16 16.08 З 2 20 км н/о +29.4 +13.2 37 +31 +31 жарко 1015.2 1003.1
17 16.08 З 2 20 км н/о +28.5 +10.7 33 +29 +29 жарко 1015.1 1003.0
18 16.08 З 1
{4}
19 км н/о +28.0 +12.8 39 +29 +29 жарко 1015.1 1002.9 +14.1 +30.0 0
19 16.08 З 1 20 км н/о +26.2 +13.3 45 +28 +28 жарко 1015.1 1002.9
20 16.08 штиль 0 20 км н/о +22.0 +13.6 59 +25 +25 комфорт 1015.8 1003.4
21 16.08 В 1
{1}
20 км н/о +20.6 +13.8 65 +25 +25 комфорт 1016.0 1003.5 0
22 16.08 штиль 0 20 км н/о +19.1 +13.5 70 +20 +20 1016.2 1003.7
23 16.08 ЮВ 1 20 км н/о +17.5 +13.2 76 +19 +19 1016.4 1003.8
00 17.08 штиль 0
{1}
20 км н/о +17.1 +13.2 78 +17 +17 1016.3 1003.7 0
01 17.08 штиль 0 20 км н/о +16.1 +13.0 82 +16 +16 1016.7 1004.0
02 17.08 штиль 0 20 км н/о +15.7 +13.0 84 +15 +15 1016.6 1003.9
03 17.08 штиль 0
{1}
20 км н/о +15.2 +12.9 86 +15 +15 1017.0 1004.3 0
04 17.08 ЮЗ 1 20 км н/о +15.4 +12.5 83 +17 +17 1016.9 1004.2
05 17.08 Ю 1 20 км н/о +15.3 +12.8 85 +17 +17 1016.6 1003.9
06 17.08 штиль 0
{2}
20 км н/о +16.8 +14.3 85 +17 +17 1016.7 1004.1 +14.7 +28.1 0
07 17.08 В 1 20 км н/о +18.3 +14.4 78 +20 +20 1016.9 1004.3
08 17.08 В 1 20 км н/о +20.1 +15.3 74 +24 +24 комфорт 1016.7 1004.2
09 17.08 СЗ 1 20 км н/о +21.9 +15.7 68 +26 +26 душно 1016.8 1004.4
10 17.08 С 1 20 км н/о +24.8 +14.6 53 +27 +27 жарко 1016.5 1004.2
11 17.08 Ю 1 20 км н/о +27.0 +14.1 45 +29 +29 жарко 1015.9 1003.7

 

Местоположение метеостанции Монтобан (Франция): широта 44.03 долгота 1.38 высота над уровнем моря 108 м.

В архиве по умолчанию представлена погода в Монтобане за последнюю неделю. Архивные данные за месяц целиком и за предыдущие месяцы, начиная с января 2011 года, Вы можете получить, выбрав интересующий диапазон дат из раскрывающегося списка и нажав кнопку "Ввод!".


*Определитесь, кто Вы:
робот инопланетянин человек

Внимание! Время в таблицах - всемирное. Для получения местного времени необходимо прибавить поправку, которая равна 1 ч.

Смотрите также архив погоды в соседних городах и на ближайших метеорологических станциях:

Погода в Тулузе (Франция) (44 км)
Погода в Тулуза аэропорту (Франция) (56 км)
Погода в Альби (Франция) (60 км)
Погода в Ажане (Франция) (64 км)
Погода в Мюре-Лерм (Франция) (65 км)
Погода в Оше (Франция) (74 км)
Погода в Гурдоне (Франция) (80 км)
Погода в Родесе (Франция) (97 км)
Погода в Бержераке (Франция) (111 км)
Погода в Брив-Суйяк (Франция) (113 км)

Пояснения к столбцам:

Ветер - указаны скорость ветра в м/с - средняя за 10 мин, порывы в срок и между сроками (в фигурных скобках) и направление, откуда дует ветер: С - северный, СВ - северо-восточный, В - восточный, ЮВ - юго-восточный, Ю - южный, ЮЗ - юго-западный, З - западный, СЗ - северо-западный.
Видимость - горизонтальная дальность видимости в метрах или километрах. При видимости от 1 до 10 км при отсутствии осадков обычно наблюдается дымка, при ухудшении видимости до 1 км и менее - туман. В сухую погоду видимость может ухудшаться дымом, пылью или мглою.
Явления - указаны атмосферные явления, наблюдавшиеся в срок или в последний час перед сроком; фигурными скобками обозначены явления, наблюдавшиеся между сроками (за 1-3 часа до срока); квадратными скобками обозначены град или гололедные отложения с указанием их диаметра в мм.
Облачность - указаны через наклонную черту общая и нижняя облачность в баллах и высота нижней границы облаков в метрах; квадратными скобками обозначены формы облаков: Ci - перистые, Cs - перисто-слоистые, Cc - перисто-кучевые, Ac - высококучевые, As - высокослоистые, Sc - слоисто-кучевые, Ns - слоисто-дождевые, Cu - кучевые, Cb - кучево-дождевые. Подробнее классификацию облаков см. в Атласе облаков (PDF).
T - Температура воздуха - температура, измеренная на высоте 2 м над землей.
Td - Температура точки росы - температура, при понижении до которой содержащийся в воздухе водяной пар достигнет насыщения.
f - Относительная влажность воздуха - влажноcть воздуха, измеренная на высоте 2 м над землей.
Te - Эффективная температура - температура, которую ощущает одетый по сезону человек в тени. Характеристика душности погоды. При расчете учитывается влияние влажности воздуха и скорости ветра на теплоощущения человека.
Tes - Эффективная температура на солнце - температура, которую ощущает человек, с поправкой на солнечный нагрев. Характеристика знойности погоды. Зависит от высоты солнца над горизонтом, облачности и скорости ветра. Ночью, в пасмурную погоду, а также при ветре 12 м/с и более поправка равна нулю.
P - Атмосферное давление - приведенное к уровню моря атмосферное давление.
Po - Атмосферное давление - измеренное на уровне метеостанции атмосферное давление.
Tmin - Минимальная температура - минимум температуры воздуха на высоте 2 м над землей.
Tmax - Максимальная температура - максимум температуры воздуха на высоте 2 м над землей.
R - Количество осадков - Количество выпавших осадков за период времени, мм. При наведении курсора мыши на число - период времени, за который выпало указанное количество осадков.
R24 - Количество осадков - Количество выпавших осадков за 24 часа, мм.
S - Снежный покров - Высота снежного покрова, см. При наведении курсора мыши на число - состояние снежного покрова и степень покрытия местности в баллах.